PP5CFL-2 Weather Reports


time (UTC)temp
F
wind
direction
speed
knots
gust
knots
rain 1hr
in
rain 24hr
in
rain mn
in
humidity
%
barometer
mb
20260504173345 79 0.0 0.0 0.00 0.00 0.00 10 1014.8
20260504172845 79 0.0 0.0 0.00 0.00 0.00 10 1014.8
20260504172345 79 0.0 0.0 0.00 0.00 0.00 10 1015.0
20260504171845 80 0.0 0.0 0.00 0.00 0.00 10 1015.1
20260504171345 80 0.0 0.0 0.00 0.00 0.00 10 1015.1
20260504170845 80 0.0 0.0 0.00 0.00 0.00 10 1015.2
20260504170345 80 0.0 0.0 0.00 0.00 0.00 10 1015.2
20260504160347 80 0.0 0.0 0.00 0.00 0.00 10 1015.8
20260504150845 80 0.0 0.0 0.00 0.00 0.00 97 1016.5
20260504150345 81 0.0 0.0 0.00 0.00 0.00 92 1016.4
20260504140845 84 0.0 0.0 0.00 0.00 0.00 88 1016.1
20260504140345 83 0.0 0.0 0.00 0.00 0.00 91 1016.2
20260504130345 73 0.0 0.0 0.00 0.00 0.00 10 1018.0
20260504110345 67 0.0 0.0 0.00 0.00 0.00 10 1017.9
20260504100340 67 0.0 0.0 0.00 0.00 0.00 10 1017.4
20260504081845 67 0.0 0.0 0.00 0.00 0.00 10 1016.9
20260504081345 67 0.0 0.0 0.00 0.00 0.00 10 1017.0
20260504080845 67 0.0 0.0 0.00 0.00 0.00 10 1017.0
20260504080345 67 0.0 0.0 0.00 0.00 0.00 10 1016.9
20260504070345 67 0.0 0.0 0.00 0.00 0.00 10 1016.3
20260504050345 67 0.0 0.0 0.00 0.00 0.00 10 1017.0
20260504045845 67 0.0 0.0 0.00 0.00 0.00 10 1017.1
20260504045345 67 0.0 0.0 0.00 0.00 0.00 10 1017.2
20260504044845 67 0.0 0.0 0.00 0.00 0.00 10 1017.1
20260504044348 67 0.0 0.0 0.00 0.00 0.00 10 1017.1
20260504043845 67 0.0 0.0 0.00 0.00 0.00 10 1017.2
20260504043345 67 0.0 0.0 0.00 0.00 0.00 10 1017.3
20260504042845 67 0.0 0.0 0.00 0.00 0.00 10 1017.4
20260504042345 67 0.0 0.0 0.00 0.00 0.00 10 1017.5
20260504041845 67 0.0 0.0 0.00 0.00 0.00 10 1017.6
20260504041345 66 0.0 0.0 0.00 0.00 0.00 10 1017.8
20260504040845 66 0.0 0.0 0.00 0.00 0.00 10 1017.9
20260504040345 66 0.0 0.0 0.00 0.00 0.00 10 1018.0
20260504035845 66 0.0 0.0 0.00 0.00 0.00 10 1018.0
20260504035345 66 0.0 0.0 0.00 0.00 0.00 10 1018.1
20260504034845 66 0.0 0.0 0.00 0.00 0.00 10 1018.1
20260504034345 66 0.0 0.0 0.00 0.00 0.00 10 1018.1
20260504033845 66 0.0 0.0 0.00 0.00 0.00 10 1018.2
20260504033345 65 0.0 0.0 0.00 0.00 0.00 10 1018.3
20260504032845 65 0.0 0.0 0.00 0.00 0.00 10 1018.4
20260504032345 65 0.0 0.0 0.00 0.00 0.00 10 1018.4
20260504031845 65 0.0 0.0 0.00 0.00 0.00 10 1018.4
20260504031345 65 0.0 0.0 0.00 0.00 0.00 10 1018.5
20260504030845 66 0.0 0.0 0.00 0.00 0.00 10 1018.5
20260504030345 66 0.0 0.0 0.00 0.00 0.00 10 1018.4
20260504025845 66 0.0 0.0 0.00 0.00 0.00 10 1018.3
20260504025345 66 0.0 0.0 0.00 0.00 0.00 10 1018.4
20260504024845 66 0.0 0.0 0.00 0.00 0.00 10 1018.4
20260504024345 66 0.0 0.0 0.00 0.00 0.00 10 1018.4
20260504023845 66 0.0 0.0 0.00 0.00 0.00 10 1018.5
20260504023345 66 0.0 0.0 0.00 0.00 0.00 10 1018.7
20260504022845 66 0.0 0.0 0.00 0.00 0.00 10 1018.7
20260504022345 66 0.0 0.0 0.00 0.00 0.00 10 1018.7
20260504021845 66 0.0 0.0 0.00 0.00 0.00 10 1018.8
20260504021345 66 0.0 0.0 0.00 0.00 0.00 10 1018.8
20260504020845 66 0.0 0.0 0.00 0.00 0.00 10 1018.9
20260504020345 66 0.0 0.0 0.00 0.00 0.00 10 1018.9
20260504015845 66 0.0 0.0 0.00 0.00 0.00 10 1018.9
20260504015345 66 0.0 0.0 0.00 0.00 0.00 10 1018.9
20260504014845 66 0.0 0.0 0.00 0.00 0.00 10 1018.9
20260504014345 66 0.0 0.0 0.00 0.00 0.00 10 1018.8
20260504013845 66 0.0 0.0 0.00 0.00 0.00 10 1018.8
20260504013345 66 0.0 0.0 0.00 0.00 0.00 10 1018.7
20260504012844 66 0.0 0.0 0.00 0.00 0.00 10 1018.8
20260504012344 66 0.0 0.0 0.00 0.00 0.00 10 1018.8
20260504011845 66 0.0 0.0 0.00 0.00 0.00 10 1018.8
20260504011345 66 0.0 0.0 0.00 0.00 0.00 10 1018.8
20260504010845 67 0.0 0.0 0.00 0.00 0.00 10 1018.7
20260504010345 66 0.0 0.0 0.00 0.00 0.00 10 1018.8
20260504005845 66 0.0 0.0 0.00 0.00 0.00 10 1018.8
20260504005344 66 0.0 0.0 0.00 0.00 0.00 10 1018.9
20260504004844 67 0.0 0.0 0.00 0.00 0.00 10 1018.9
20260504004344 68 0.0 0.0 0.00 0.00 0.00 10 1018.7
20260504003844 69 0.0 0.0 0.00 0.00 0.00 10 1018.6
20260504003344 68 0.0 0.0 0.00 0.00 0.00 10 1018.8
20260504002844 67 0.0 0.0 0.00 0.00 0.00 10 1019.0
20260504002345 67 0.0 0.0 0.00 0.00 0.00 10 1019.0
20260504001845 67 0.0 0.0 0.00 0.00 0.00 10 1019.0
20260504001345 67 0.0 0.0 0.00 0.00 0.00 10 1019.0
20260504000844 67 0.0 0.0 0.00 0.00 0.00 10 1019.0
20260504000346 67 0.0 0.0 0.00 0.00 0.00 10 1019.0
20260503235846 67 0.0 0.0 0.00 0.00 0.00 10 1019.0
20260503235345 67 0.0 0.0 0.00 0.00 0.00 10 1018.9
20260503234844 67 0.0 0.0 0.00 0.00 0.00 10 1019.0
20260503234344 67 0.0 0.0 0.00 0.00 0.00 10 1018.8
20260503233845 68 0.0 0.0 0.00 0.00 0.00 10 1018.9
20260503233344 68 0.0 0.0 0.00 0.00 0.00 10 1018.7
20260503232844 68 0.0 0.0 0.00 0.00 0.00 10 1018.6
20260503232344 68 0.0 0.0 0.00 0.00 0.00 10 1018.5
20260503231844 68 0.0 0.0 0.00 0.00 0.00 10 1018.7
20260503231345 69 0.0 0.0 0.00 0.00 0.00 10 1018.6
20260503230845 69 0.0 0.0 0.00 0.00 0.00 10 1018.6
20260503230344 69 0.0 0.0 0.00 0.00 0.00 10 1018.4
20260503225844 69 0.0 0.0 0.00 0.00 0.00 10 1018.6
20260503225352 69 0.0 0.0 0.00 0.00 0.00 10 1018.5
20260503224844 69 0.0 0.0 0.00 0.00 0.00 10 1018.4
20260503224344 69 0.0 0.0 0.00 0.00 0.00 10 1018.4
20260503223844 69 0.0 0.0 0.00 0.00 0.00 10 1018.5
20260503223344 70 0.0 0.0 0.00 0.00 0.00 10 1018.3
20260503222844 69 0.0 0.0 0.00 0.00 0.00 10 1018.4
20260503222344 70 0.0 0.0 0.00 0.00 0.00 10 1018.1
20260503221844 70 0.0 0.0 0.00 0.00 0.00 10 1018.3
20260503221344 70 0.0 0.0 0.00 0.00 0.00 10 1018.1
20260503220844 70 0.0 0.0 0.00 0.00 0.00 10 1018.2
20260503220344 70 0.0 0.0 0.00 0.00 0.00 10 1018.1
20260503215844 70 0.0 0.0 0.00 0.00 0.00 10 1018.3
20260503215344 70 0.0 0.0 0.00 0.00 0.00 99 1018.3
20260503214844 70 0.0 0.0 0.00 0.00 0.00 10 1018.2
20260503214344 70 0.0 0.0 0.00 0.00 0.00 99 1018.2
20260503213844 70 0.0 0.0 0.00 0.00 0.00 98 1018.2
20260503213344 70 0.0 0.0 0.00 0.00 0.00 99 1018.1
20260503212844 70 0.0 0.0 0.00 0.00 0.00 99 1018.1
20260503212344 70 0.0 0.0 0.00 0.00 0.00 97 1018.1
20260503211844 69 0.0 0.0 0.00 0.00 0.00 96 1018.0
20260503211344 70 0.0 0.0 0.00 0.00 0.00 95 1017.9
20260503210844 69 0.0 0.0 0.00 0.00 0.00 97 1017.9
20260503210344 70 0.0 0.0 0.00 0.00 0.00 94 1017.9
20260503205844 70 0.0 0.0 0.00 0.00 0.00 96 1018.0
20260503205344 70 0.0 0.0 0.00 0.00 0.00 94 1018.0
20260503204844 70 0.0 0.0 0.00 0.00 0.00 94 1018.0
20260503204344 70 0.0 0.0 0.00 0.00 0.00 93 1018.0
20260503203844 70 0.0 0.0 0.00 0.00 0.00 94 1018.0
20260503203344 70 0.0 0.0 0.00 0.00 0.00 93 1018.0
20260503202844 70 0.0 0.0 0.00 0.00 0.00 92 1017.8
20260503202345 71 0.0 0.0 0.00 0.00 0.00 94 1017.9
20260503201844 71 0.0 0.0 0.00 0.00 0.00 92 1017.9
20260503201344 70 0.0 0.0 0.00 0.00 0.00 94 1017.9
20260503200844 70 0.0 0.0 0.00 0.00 0.00 94 1017.9
20260503200344 70 0.0 0.0 0.00 0.00 0.00 93 1017.8
20260503195844 71 0.0 0.0 0.00 0.00 0.00 92 1017.8
20260503195344 71 0.0 0.0 0.00 0.00 0.00 93 1017.9
20260503194844 71 0.0 0.0 0.00 0.00 0.00 90 1017.8
20260503194344 71 0.0 0.0 0.00 0.00 0.00 91 1017.8
20260503193844 71 0.0 0.0 0.00 0.00 0.00 92 1017.8
20260503193344 71 0.0 0.0 0.00 0.00 0.00 91 1017.9
20260503192844 72 0.0 0.0 0.00 0.00 0.00 93 1017.7
20260503192344 72 0.0 0.0 0.00 0.00 0.00 92 1017.7
20260503191844 72 0.0 0.0 0.00 0.00 0.00 91 1017.7
20260503191344 72 0.0 0.0 0.00 0.00 0.00 91 1017.8
20260503190844 72 0.0 0.0 0.00 0.00 0.00 91 1017.7
20260503190344 72 0.0 0.0 0.00 0.00 0.00 91 1017.8
20260503185844 72 0.0 0.0 0.00 0.00 0.00 91 1017.8
20260503185344 71 0.0 0.0 0.00 0.00 0.00 90 1018.0
20260503184844 72 0.0 0.0 0.00 0.00 0.00 88 1018.1
20260503184344 72 0.0 0.0 0.00 0.00 0.00 87 1018.1
20260503183844 72 0.0 0.0 0.00 0.00 0.00 86 1018.2
20260503183344 72 0.0 0.0 0.00 0.00 0.00 87 1018.3
20260503182844 72 0.0 0.0 0.00 0.00 0.00 86 1018.2
20260503182344 72 0.0 0.0 0.00 0.00 0.00 84 1018.3
20260503181844 72 0.0 0.0 0.00 0.00 0.00 83 1018.3
20260503181344 72 0.0 0.0 0.00 0.00 0.00 85 1018.4
20260503180844 72 0.0 0.0 0.00 0.00 0.00 84 1018.4
20260503180344 72 0.0 0.0 0.00 0.00 0.00 82 1018.5
20260503175844 72 0.0 0.0 0.00 0.00 0.00 82 1018.5
20260503175344 72 0.0 0.0 0.00 0.00 0.00 83 1018.5
20260503174844 72 0.0 0.0 0.00 0.00 0.00 83 1018.6
20260503174344 72 0.0 0.0 0.00 0.00 0.00 82 1018.6
20260503173844 72 0.0 0.0 0.00 0.00 0.00 80 1018.8